INSAT-3DS

Last updated on Thu Jul 03 2025 00:02:22 GMT+0000 (Coordinated Universal Time)

1 58990U 24033A 25183.63285003 -.00000149 00000+0 00000+0 0 9992 2 58990 0.0757 94.1092 0001316 3.2797 133.4122 1.00272568 43561
UTC large
Height (km)
Speed (km/s)
/
Latitude / Longitude
Inclination (degrees)
Orbital Period (minutes)
Azimuth
Elevation
Range (km)
Doppler Factor

Next 0 passes for location: London (51.5072 / 0.1276)

Sorry there are no passes over London.